GFSWCAN_500_temp_000.txt.gz
Temp
-23 -24 -24 -24 -24 -24 -24 -24 -24 -25 -25 -25 -25 -25 -25 -25 -25 -24 -24 -23 -23 -22 -22 -21 -21 -20 -20 -19 -18 -17 -17 -15 -15 -14 -14 -13 -13 -13 -13 -12 -13 -11 -10 -10 -11 -9 -9 -9 -9 -9 -9 -9 -10 -9
-24 -24 -24 -24 -25 -24 -24 -25 -25 -25 -26 -26 -26 -26 -26 -25 -25 -24 -24 -23 -23 -23 -23 -22 -21 -21 -20 -20 -19 -18 -17 -16 -16 -15 -14 -14 -14 -14 -14 -13 -12 -12 -11 -11 -11 -10 -10 -9 -9 -9 -9 -10 -10 -10
-24 -24 -25 -25 -25 -25 -25 -25 -25 -26 -26 -27 -27 -26 -26 -25 -25 -25 -24 -23 -23 -23 -23 -22 -22 -21 -21 -20 -19 -18 -16 -16 -15 -15 -15 -14 -14 -14 -13 -13 -13 -13 -12 -11 -11 -10 -10 -10 -10 -10 -10 -10 -9 -10
-24 -25 -25 -25 -25 -25 -25 -26 -26 -26 -26 -27 -26 -26 -26 -25 -25 -24 -24 -24 -23 -23 -23 -22 -22 -22 -21 -20 -20 -19 -18 -17 -16 -15 -15 -15 -15 -14 -14 -13 -13 -13 -13 -12 -11 -11 -11 -10 -10 -10 -10 -10 -10 -11
-26 -25 -25 -25 -25 -26 -26 -26 -26 -26 -26 -26 -26 -26 -26 -25 -25 -24 -24 -23 -23 -23 -22 -22 -22 -21 -21 -21 -21 -19 -18 -17 -16 -16 -15 -15 -15 -15 -14 -14 -13 -13 -12 -12 -11 -11 -11 -11 -11 -11 -11 -11 -11 -11
-27 -26 -26 -25 -26 -26 -26 -26 -26 -26 -26 -26 -26 -26 -26 -25 -25 -24 -24 -23 -23 -23 -22 -22 -22 -21 -20 -20 -20 -20 -18 -17 -16 -16 -15 -15 -15 -15 -14 -14 -13 -13 -13 -13 -12 -11 -11 -11 -11 -11 -11 -11 -11 -10
-27 -26 -26 -26 -26 -26 -26 -25 -25 -26 -26 -26 -26 -26 -25 -25 -24 -24 -23 -24 -23 -23 -22 -22 -21 -21 -20 -20 -20 -19 -19 -18 -18 -16 -16 -15 -15 -14 -13 -13 -13 -13 -12 -12 -13 -12 -12 -13 -13 -12 -12 -11 -12 -11
-27 -26 -26 -26 -26 -26 -26 -25 -25 -25 -25 -25 -26 -25 -25 -25 -24 -23 -24 -23 -23 -23 -22 -21 -21 -20 -20 -19 -19 -19 -18 -18 -17 -17 -16 -15 -15 -14 -15 -14 -13 -13 -13 -13 -13 -12 -12 -12 -12 -12 -13 -12 -12 -12
-27 -26 -26 -26 -26 -26 -25 -25 -25 -25 -25 -25 -25 -25 -24 -24 -24 -24 -23 -23 -23 -22 -22 -21 -21 -20 -20 -19 -19 -19 -18 -18 -17 -17 -16 -15 -15 -14 -14 -14 -14 -13 -14 -14 -13 -13 -13 -13 -13 -13 -13 -13 -13 -12
-26 -26 -26 -26 -26 -26 -26 -25 -25 -25 -25 -25 -25 -24 -24 -24 -24 -24 -23 -23 -23 -23 -22 -22 -21 -21 -20 -21 -20 -19 -19 -17 -17 -17 -16 -16 -16 -15 -14 -14 -14 -15 -14 -14 -14 -14 -14 -14 -14 -13 -13 -13 -13 -13
-25 -25 -25 -25 -25 -25 -25 -25 -25 -25 -25 -25 -24 -24 -24 -24 -24 -23 -24 -23 -23 -22 -22 -21 -21 -21 -21 -20 -20 -19 -19 -18 -17 -17 -17 -17 -16 -16 -16 -15 -14 -14 -15 -15 -15 -14 -14 -14 -14 -14 -13 -13 -13 -13
-25 -25 -25 -25 -25 -25 -25 -25 -25 -25 -25 -24 -24 -24 -24 -24 -23 -23 -23 -23 -23 -22 -22 -22 -22 -21 -21 -21 -21 -20 -19 -19 -18 -18 -18 -17 -17 -17 -17 -16 -16 -16 -15 -15 -15 -15 -14 -14 -13 -13 -13 -13 -13 -13
-25 -25 -25 -25 -25 -25 -25 -25 -25 -25 -25 -24 -24 -24 -23 -23 -23 -23 -23 -23 -22 -22 -22 -22 -22 -21 -21 -21 -21 -21 -20 -19 -19 -18 -17 -17 -17 -17 -17 -16 -16 -16 -16 -15 -15 -14 -14 -14 -14 -14 -14 -14 -14 -14
-25 -25 -25 -25 -25 -25 -25 -25 -25 -25 -25 -25 -24 -24 -23 -23 -23 -22 -22 -22 -22 -22 -22 -22 -22 -21 -21 -21 -20 -20 -20 -19 -18 -18 -17 -17 -17 -17 -17 -17 -17 -16 -16 -15 -15 -15 -15 -15 -15 -15 -14 -14 -14 -14
-25 -25 -25 -25 -25 -25 -25 -25 -25 -25 -25 -24 -23 -22 -22 -22 -22 -22 -22 -22 -22 -21 -21 -21 -21 -21 -21 -20 -20 -20 -19 -19 -18 -18 -18 -18 -18 -18 -17 -17 -18 -17 -17 -16 -16 -15 -15 -15 -15 -14 -14 -14 -14 -13
-25 -25 -25 -25 -25 -25 -24 -24 -24 -24 -24 -23 -23 -23 -22 -22 -22 -22 -22 -22 -21 -21 -21 -21 -21 -21 -21 -20 -20 -19 -19 -18 -18 -18 -18 -18 -18 -18 -18 -17 -17 -17 -16 -16 -16 -15 -15 -15 -14 -14 -14 -14 -14 -14
-24 -25 -24 -24 -24 -24 -24 -24 -24 -24 -24 -23 -23 -23 -22 -22 -22 -22 -21 -21 -21 -21 -21 -21 -21 -21 -21 -21 -20 -20 -19 -19 -19 -19 -19 -19 -19 -18 -18 -17 -17 -17 -17 -16 -16 -16 -15 -15 -15 -15 -14 -14 -14 -15
-24 -24 -24 -23 -23 -24 -23 -23 -23 -23 -23 -23 -23 -22 -22 -22 -22 -22 -22 -22 -22 -21 -21 -21 -21 -21 -20 -20 -21 -20 -20 -19 -19 -19 -19 -19 -19 -18 -18 -17 -17 -17 -17 -17 -17 -16 -16 -15 -15 -16 -16 -16 -16 -16
-23 -23 -23 -23 -23 -23 -23 -23 -23 -23 -22 -22 -22 -22 -21 -21 -22 -22 -22 -22 -21 -21 -21 -21 -20 -20 -19 -19 -19 -19 -19 -19 -19 -19 -19 -19 -18 -18 -17 -17 -17 -17 -17 -17 -16 -17 -17 -16 -16 -16 -16 -16 -16 -15
-23 -23 -23 -23 -22 -22 -22 -22 -22 -22 -22 -22 -21 -21 -21 -21 -21 -21 -20 -20 -20 -20 -20 -20 -19 -19 -19 -19 -19 -19 -19 -19 -19 -19 -19 -18 -18 -18 -18 -18 -17 -17 -17 -17 -17 -17 -17 -16 -16 -16 -16 -16 -16 -15
-22 -22 -22 -22 -22 -22 -22 -22 -22 -22 -22 -21 -21 -21 -21 -20 -20 -20 -20 -20 -20 -20 -20 -19 -19 -19 -19 -19 -19 -19 -19 -19 -18 -18 -18 -18 -18 -18 -18 -18 -18 -18 -17 -17 -17 -17 -17 -17 -16 -16 -16 -17 -17 -17
-21 -21 -22 -22 -21 -21 -21 -21 -21 -21 -21 -21 -21 -20 -20 -20 -20 -20 -20 -20 -20 -20 -19 -19 -19 -19 -19 -19 -19 -19 -19 -19 -19 -18 -18 -18 -18 -18 -18 -18 -18 -18 -18 -18 -18 -18 -17 -17 -17 -17 -17 -17 -17 -17
-20 -20 -20 -20 -20 -20 -20 -20 -20 -20 -20 -20 -20 -20 -20 -20 -20 -20 -20 -20 -19 -19 -19 -19 -19 -19 -19 -19 -19 -19 -19 -19 -19 -19 -19 -18 -18 -19 -18 -18 -18 -18 -18 -18 -18 -18 -18 -17 -17 -17 -17 -18 -18 -18
-19 -19 -20 -20 -20 -20 -20 -20 -20 -20 -20 -20 -20 -20 -20 -20 -20 -19 -19 -19 -19 -19 -19 -19 -19 -19 -19 -19 -19 -19 -19 -19 -19 -19 -18 -18 -18 -18 -18 -18 -18 -18 -18 -18 -18 -18 -18 -18 -18 -18 -18 -18 -18 -18
-19 -19 -19 -19 -19 -20 -20 -20 -20 -19 -20 -19 -20 -20 -20 -20 -20 -20 -20 -20 -20 -19 -19 -19 -19 -19 -19 -19 -19 -19 -19 -19 -19 -19 -19 -19 -19 -19 -18 -18 -18 -18 -18 -18 -18 -18 -18 -18 -18 -18 -18 -17 -17 -17
-19 -19 -19 -20 -20 -19 -20 -20 -20 -20 -20 -20 -20 -20 -20 -20 -20 -20 -20 -20 -20 -20 -20 -19 -19 -19 -19 -19 -19 -19 -19 -19 -19 -19 -19 -19 -19 -19 -18 -18 -18 -18 -18 -18 -18 -18 -18 -18 -18 -18 -18 -18 -17 -17
-19 -19 -19 -19 -19 -20 -20 -20 -19 -20 -20 -20 -20 -20 -20 -19 -19 -19 -19 -20 -20 -20 -20 -19 -19 -19 -19 -19 -19 -19 -19 -19 -19 -19 -19 -19 -19 -18 -18 -18 -18 -18 -18 -18 -18 -18 -18 -18 -18 -18 -18 -18 -18 -18
-19 -19 -19 -19 -19 -19 -19 -19 -19 -19 -20 -20 -19 -20 -19 -19 -19 -19 -19 -19 -19 -19 -19 -19 -19 -19 -18 -18 -18 -18 -18 -18 -18 -18 -18 -18 -18 -18 -18 -18 -18 -18 -18 -18 -18 -18 -18 -18 -18 -18 -18 -18 -18 -18
-19 -19 -19 -19 -19 -19 -19 -19 -19 -19 -20 -20 -19 -19 -19 -19 -19 -19 -19 -19 -19 -18 -18 -18 -19 -19 -19 -19 -18 -18 -19 -19 -19 -19 -19 -19 -19 -19 -19 -19 -19 -19 -19 -19 -19 -19 -19 -19 -19 -19 -19 -19 -19 -19
-19 -19 -19 -19 -19 -19 -19 -19 -19 -19 -19 -19 -19 -19 -19 -19 -19 -19 -19 -19 -18 -19 -18 -18 -19 -19 -19 -19 -19 -19 -19 -19 -19 -19 -19 -19 -19 -20 -20 -20 -20 -20 -20 -20 -20 -20 -20 -20 -20 -20 -20 -20 -20 -20
-19 -19 -19 -19 -19 -19 -19 -19 -19 -20 -19 -19 -19 -19 -19 -19 -19 -19 -19 -19 -19 -19 -19 -19 -19 -20 -20 -20 -19 -19 -20 -20 -20 -20 -20 -20 -20 -20 -20 -20 -20 -20 -20 -20 -20 -20 -20 -20 -21 -21 -21 -21 -21 -21
-19 -19 -19 -19 -19 -19 -19 -19 -19 -19 -19 -19 -19 -19 -19 -19 -19 -19 -19 -19 -19 -19 -19 -20 -20 -20 -20 -20 -20 -20 -20 -20 -20 -20 -20 -21 -21 -21 -21 -21 -21 -21 -21 -21 -21 -21 -21 -21 -21 -21 -21 -21 -22 -22
-19 -19 -19 -19 -19 -19 -19 -19 -19 -19 -19 -19 -19 -19 -19 -19 -20 -20 -20 -20 -20 -20 -20 -20 -20 -20 -20 -20 -20 -20 -20 -20 -20 -20 -21 -21 -21 -21 -21 -21 -21 -21 -21 -22 -22 -22 -22 -23 -23 -23 -23 -24 -24 -24

GFSWCAN_500_temp_003.txt.gz
Temp
-23 -24 -25 -25 -24 -24 -25 -25 -25 -25 -25 -25 -25 -26 -26 -26 -26 -25 -25 -25 -24 -23 -24 -23 -22 -22 -21 -20 -20 -19 -19 -18 -17 -16 -15 -15 -14 -13 -13 -13 -13 -12 -12 -12 -12 -11 -11 -10 -10 -10 -10 -10 -9 -9
-24 -25 -25 -25 -25 -25 -25 -26 -26 -26 -26 -26 -26 -27 -27 -27 -27 -26 -25 -25 -24 -24 -24 -23 -22 -22 -22 -21 -20 -20 -19 -18 -17 -16 -15 -15 -14 -13 -13 -13 -13 -12 -12 -11 -11 -11 -10 -10 -10 -10 -10 -10 -9 -9
-26 -26 -27 -26 -26 -26 -26 -26 -26 -26 -26 -26 -27 -27 -27 -27 -27 -26 -25 -25 -25 -24 -23 -23 -23 -22 -22 -21 -20 -19 -19 -19 -17 -16 -16 -15 -15 -14 -14 -13 -13 -13 -12 -12 -12 -11 -11 -10 -10 -9 -10 -9 -9 -10
-27 -27 -27 -27 -26 -26 -26 -26 -26 -26 -26 -27 -27 -27 -27 -27 -26 -26 -25 -25 -25 -24 -24 -23 -23 -22 -22 -21 -21 -21 -19 -18 -17 -17 -16 -15 -15 -15 -14 -14 -14 -12 -12 -12 -12 -12 -11 -10 -10 -10 -10 -10 -10 -10
-28 -27 -27 -27 -26 -26 -26 -26 -26 -26 -26 -26 -26 -26 -26 -26 -26 -26 -25 -24 -24 -23 -23 -23 -22 -23 -23 -22 -22 -20 -20 -18 -18 -16 -15 -15 -15 -15 -14 -14 -13 -13 -12 -12 -11 -12 -11 -11 -11 -11 -11 -10 -10 -10
-28 -27 -27 -26 -26 -26 -26 -26 -26 -26 -26 -26 -26 -26 -26 -26 -25 -25 -25 -24 -23 -24 -23 -23 -23 -23 -23 -22 -21 -21 -20 -18 -17 -17 -15 -15 -15 -15 -14 -14 -13 -13 -13 -13 -13 -13 -11 -11 -11 -11 -11 -11 -11 -11
-27 -27 -26 -26 -26 -26 -26 -26 -26 -26 -26 -26 -26 -26 -26 -25 -25 -25 -24 -24 -24 -24 -23 -23 -23 -23 -23 -22 -21 -20 -20 -19 -18 -17 -16 -16 -15 -15 -14 -14 -14 -13 -13 -12 -12 -12 -12 -12 -12 -11 -11 -11 -11 -11
-26 -26 -26 -26 -26 -26 -25 -25 -25 -26 -26 -26 -26 -26 -25 -25 -25 -24 -24 -24 -24 -24 -23 -23 -23 -22 -21 -21 -21 -19 -19 -18 -17 -17 -16 -16 -16 -15 -14 -14 -14 -13 -13 -13 -12 -12 -12 -13 -13 -12 -12 -12 -12 -11
-26 -26 -26 -26 -26 -26 -25 -25 -25 -25 -26 -26 -26 -25 -25 -24 -24 -24 -24 -24 -23 -23 -23 -22 -22 -21 -20 -21 -21 -19 -19 -18 -17 -17 -17 -16 -15 -15 -14 -14 -14 -13 -13 -13 -12 -13 -13 -12 -11 -12 -12 -13 -13 -13
-25 -25 -25 -25 -25 -25 -25 -25 -25 -25 -25 -25 -25 -24 -24 -24 -24 -24 -24 -24 -23 -23 -22 -22 -21 -21 -21 -20 -20 -20 -19 -18 -17 -17 -16 -16 -15 -14 -14 -14 -14 -13 -13 -13 -13 -13 -13 -13 -13 -13 -13 -14 -13 -13
-25 -25 -25 -25 -25 -25 -25 -25 -25 -25 -25 -25 -25 -24 -25 -24 -24 -24 -24 -23 -22 -22 -22 -21 -21 -21 -21 -21 -21 -20 -19 -19 -17 -17 -16 -16 -15 -15 -14 -14 -13 -13 -13 -13 -13 -14 -15 -15 -15 -14 -14 -13 -13 -13
-25 -25 -25 -25 -25 -25 -25 -25 -24 -24 -24 -24 -24 -24 -24 -23 -24 -23 -23 -23 -22 -22 -21 -21 -21 -21 -20 -20 -20 -20 -19 -18 -17 -17 -16 -16 -16 -16 -15 -15 -14 -14 -15 -15 -15 -14 -14 -14 -15 -14 -14 -13 -13 -13
-25 -25 -25 -25 -24 -24 -25 -25 -24 -24 -24 -24 -24 -23 -23 -24 -24 -23 -23 -23 -22 -22 -21 -21 -21 -20 -20 -20 -20 -19 -19 -18 -18 -17 -17 -17 -16 -16 -16 -15 -15 -15 -15 -15 -15 -15 -15 -15 -14 -14 -14 -13 -13 -13
-25 -25 -25 -25 -24 -24 -25 -24 -24 -24 -24 -24 -23 -23 -22 -22 -22 -23 -23 -22 -22 -22 -21 -21 -21 -21 -20 -20 -20 -20 -19 -18 -18 -18 -18 -18 -17 -17 -17 -16 -16 -16 -16 -16 -16 -15 -15 -15 -15 -14 -14 -13 -13 -14
-24 -24 -24 -25 -25 -24 -24 -24 -24 -24 -23 -22 -22 -22 -22 -22 -22 -22 -22 -21 -21 -22 -21 -21 -20 -20 -20 -20 -20 -20 -19 -18 -18 -18 -17 -17 -18 -17 -17 -17 -17 -16 -16 -16 -16 -16 -16 -15 -15 -15 -15 -15 -15 -14
-24 -24 -24 -24 -24 -24 -23 -23 -23 -23 -23 -22 -22 -22 -22 -22 -22 -22 -22 -22 -22 -22 -21 -21 -20 -20 -20 -20 -19 -19 -19 -19 -18 -17 -17 -18 -18 -18 -17 -17 -17 -18 -17 -17 -17 -17 -16 -16 -15 -15 -15 -14 -14 -14
-23 -23 -23 -23 -23 -23 -23 -23 -23 -23 -23 -22 -22 -22 -22 -22 -21 -21 -21 -21 -21 -21 -21 -21 -20 -20 -20 -20 -19 -19 -19 -18 -18 -18 -18 -18 -18 -17 -18 -18 -18 -18 -17 -17 -17 -16 -16 -15 -15 -15 -15 -14 -14 -14
-22 -22 -22 -23 -22 -22 -22 -22 -23 -22 -22 -22 -22 -22 -22 -22 -22 -21 -21 -21 -21 -21 -21 -21 -20 -20 -20 -20 -19 -19 -19 -19 -19 -19 -18 -19 -18 -18 -18 -18 -18 -17 -17 -17 -16 -16 -16 -15 -15 -15 -15 -15 -15 -15
-22 -22 -22 -22 -22 -22 -22 -22 -22 -22 -21 -21 -21 -21 -21 -21 -21 -21 -21 -21 -21 -21 -21 -21 -20 -21 -21 -20 -20 -19 -19 -19 -19 -19 -19 -18 -18 -18 -18 -18 -17 -17 -17 -17 -17 -17 -16 -16 -16 -16 -16 -16 -16 -16
-21 -21 -21 -22 -22 -22 -21 -21 -21 -21 -21 -21 -21 -21 -21 -21 -20 -20 -20 -20 -20 -20 -21 -20 -20 -20 -20 -20 -20 -20 -19 -19 -19 -19 -19 -19 -19 -18 -18 -18 -18 -17 -17 -17 -17 -17 -16 -17 -17 -17 -17 -16 -16 -16
-21 -21 -21 -21 -21 -21 -21 -21 -21 -21 -21 -21 -21 -21 -21 -21 -20 -20 -20 -20 -20 -20 -20 -19 -19 -19 -19 -19 -19 -19 -19 -19 -19 -19 -19 -19 -18 -19 -18 -18 -18 -18 -18 -18 -18 -17 -18 -18 -18 -17 -17 -17 -17 -16
-20 -20 -20 -20 -20 -20 -20 -21 -21 -21 -21 -20 -20 -20 -20 -20 -20 -20 -20 -20 -20 -20 -20 -20 -19 -19 -19 -19 -19 -19 -19 -19 -19 -19 -19 -19 -19 -19 -18 -18 -18 -18 -18 -19 -19 -19 -18 -18 -18 -18 -17 -17 -17 -17
-20 -20 -20 -20 -20 -20 -20 -20 -20 -20 -20 -20 -20 -20 -20 -20 -20 -20 -20 -20 -19 -19 -19 -19 -19 -19 -19 -19 -19 -19 -19 -19 -19 -19 -19 -19 -19 -18 -18 -18 -19 -19 -19 -18 -18 -18 -18 -18 -17 -17 -17 -17 -17 -17
-19 -19 -19 -19 -20 -20 -20 -20 -20 -20 -19 -19 -20 -20 -20 -20 -20 -20 -20 -20 -20 -20 -20 -19 -19 -19 -19 -19 -19 -19 -19 -19 -19 -19 -19 -19 -19 -19 -19 -19 -19 -19 -18 -18 -18 -18 -18 -18 -18 -18 -18 -18 -18 -18
-19 -19 -19 -20 -20 -20 -20 -20 -20 -20 -20 -20 -20 -20 -20 -20 -20 -20 -20 -20 -20 -20 -20 -20 -20 -20 -20 -19 -19 -19 -19 -19 -19 -19 -19 -19 -19 -19 -19 -18 -18 -18 -18 -18 -18 -18 -18 -18 -18 -18 -18 -18 -18 -18
-19 -19 -19 -20 -20 -19 -19 -19 -19 -19 -20 -20 -20 -20 -20 -20 -20 -20 -20 -20 -19 -19 -19 -19 -19 -19 -19 -19 -19 -19 -19 -19 -19 -19 -19 -19 -19 -19 -19 -19 -18 -18 -18 -18 -18 -18 -18 -18 -18 -18 -18 -18 -18 -18
-19 -19 -19 -19 -19 -20 -20 -20 -20 -20 -20 -20 -20 -20 -20 -20 -19 -19 -19 -19 -19 -19 -19 -19 -19 -19 -20 -20 -20 -20 -20 -19 -19 -19 -19 -19 -19 -19 -19 -19 -19 -19 -19 -19 -19 -19 -19 -19 -19 -19 -19 -19 -19 -19
-19 -19 -19 -19 -19 -19 -19 -20 -20 -20 -20 -20 -20 -20 -20 -20 -20 -20 -20 -20 -20 -19 -19 -20 -20 -19 -19 -19 -19 -20 -20 -19 -19 -19 -19 -19 -19 -19 -19 -19 -19 -19 -20 -20 -20 -20 -20 -20 -20 -20 -20 -20 -20 -20
-19 -19 -19 -19 -19 -19 -19 -19 -19 -19 -20 -20 -20 -19 -19 -19 -19 -19 -19 -19 -19 -19 -19 -19 -19 -19 -19 -19 -19 -19 -19 -19 -19 -20 -20 -20 -20 -20 -20 -20 -20 -20 -20 -20 -20 -20 -20 -20 -20 -20 -20 -20 -20 -20
-19 -19 -19 -19 -19 -19 -19 -19 -19 -19 -19 -19 -19 -19 -19 -19 -19 -19 -19 -19 -19 -19 -20 -20 -20 -20 -20 -20 -20 -20 -20 -20 -20 -21 -21 -21 -21 -21 -21 -21 -21 -21 -21 -21 -21 -21 -21 -21 -21 -21 -21 -21 -21 -21
-19 -19 -19 -19 -19 -19 -19 -19 -19 -19 -19 -19 -19 -19 -19 -19 -19 -19 -19 -20 -20 -20 -20 -20 -20 -20 -21 -21 -21 -21 -21 -21 -21 -21 -21 -21 -21 -21 -21 -21 -21 -21 -21 -21 -21 -21 -21 -21 -21 -21 -22 -22 -22 -22
-19 -19 -19 -19 -19 -19 -19 -19 -19 -19 -19 -19 -19 -19 -19 -19 -20 -20 -20 -20 -20 -20 -20 -20 -20 -20 -20 -20 -20 -21 -21 -21 -21 -21 -21 -21 -21 -21 -21 -21 -22 -22 -22 -22 -22 -22 -23 -23 -23 -23 -23 -24 -24 -24
-19 -19 -19 -19 -19 -19 -19 -19 -19 -19 -19 -19 -19 -19 -20 -20 -19 -19 -20 -20 -20 -20 -20 -20 -20 -20 -20 -20 -20 -20 -21 -21 -21 -21 -21 -22 -22 -22 -23 -23 -23 -23 -23 -24 -24 -24 -24 -24 -24 -25 -25 -25 -25 -25

GFSWCAN_500_temp_006.txt.gz
Temp
-23 -24 -27 -27 -27 -27 -27 -26 -26 -26 -26 -26 -26 -26 -26 -26 -26 -26 -26 -25 -25 -25 -25 -25 -24 -23 -23 -22 -21 -21 -19 -19 -19 -18 -17 -17 -15 -15 -15 -14 -12 -12 -12 -13 -13 -13 -13 -10 -11 -11 -10 -10 -10 -10
-26 -27 -27 -27 -28 -27 -27 -26 -26 -26 -26 -26 -26 -27 -27 -27 -27 -27 -27 -26 -26 -25 -25 -24 -23 -23 -22 -22 -21 -21 -20 -19 -19 -18 -17 -17 -16 -13 -14 -14 -14 -14 -14 -14 -12 -13 -12 -12 -11 -11 -11 -10 -10 -10
-27 -27 -28 -28 -27 -27 -27 -26 -26 -26 -26 -26 -27 -27 -27 -27 -27 -27 -27 -26 -26 -25 -25 -24 -23 -22 -22 -22 -22 -21 -20 -19 -19 -18 -17 -16 -16 -15 -14 -13 -14 -13 -13 -12 -12 -12 -11 -11 -11 -11 -11 -10 -10 -10
-27 -27 -27 -27 -27 -27 -26 -26 -26 -26 -26 -26 -26 -27 -27 -27 -26 -26 -26 -25 -25 -25 -24 -24 -23 -23 -22 -22 -22 -21 -19 -19 -18 -18 -17 -17 -17 -16 -15 -14 -14 -12 -13 -12 -12 -12 -12 -11 -11 -11 -11 -10 -10 -10
-26 -26 -26 -26 -26 -26 -26 -26 -26 -26 -26 -26 -26 -26 -26 -26 -26 -25 -25 -25 -24 -24 -24 -23 -23 -23 -22 -22 -22 -21 -20 -19 -18 -18 -17 -17 -17 -16 -15 -15 -14 -13 -13 -13 -12 -12 -12 -11 -12 -11 -11 -11 -11 -10
-25 -25 -26 -26 -26 -26 -26 -25 -26 -26 -26 -26 -26 -26 -26 -26 -25 -25 -25 -24 -24 -24 -23 -23 -23 -23 -23 -22 -22 -21 -20 -19 -18 -17 -17 -16 -16 -15 -15 -14 -14 -13 -13 -12 -12 -12 -11 -12 -11 -11 -11 -11 -11 -11
-25 -25 -25 -25 -25 -25 -25 -25 -26 -26 -26 -26 -25 -25 -25 -25 -25 -24 -24 -24 -24 -24 -23 -23 -23 -23 -23 -22 -21 -21 -19 -18 -18 -17 -16 -15 -15 -15 -15 -14 -14 -13 -13 -12 -12 -12 -12 -12 -12 -11 -12 -11 -11 -11
-25 -25 -25 -25 -25 -25 -25 -25 -25 -26 -26 -25 -25 -25 -25 -24 -24 -25 -24 -24 -24 -23 -23 -23 -23 -23 -23 -22 -21 -20 -19 -18 -17 -17 -17 -16 -15 -15 -14 -14 -14 -13 -13 -13 -12 -12 -12 -12 -10 -11 -11 -11 -10 -10
-24 -24 -25 -25 -25 -25 -25 -25 -25 -25 -25 -25 -25 -25 -24 -25 -25 -24 -24 -24 -23 -23 -23 -22 -22 -21 -23 -22 -20 -20 -18 -18 -18 -17 -16 -16 -15 -15 -15 -14 -14 -13 -13 -13 -12 -12 -12 -12 -12 -11 -12 -11 -10 -10
-25 -24 -24 -24 -24 -24 -25 -25 -25 -25 -24 -24 -24 -24 -24 -24 -24 -24 -24 -23 -22 -22 -22 -22 -22 -22 -21 -20 -20 -19 -18 -18 -17 -16 -16 -16 -15 -15 -15 -14 -14 -14 -13 -13 -13 -13 -13 -12 -12 -12 -12 -12 -12 -12
-25 -24 -24 -24 -24 -24 -24 -24 -24 -24 -24 -24 -24 -24 -24 -24 -23 -23 -23 -22 -22 -22 -23 -22 -22 -21 -21 -20 -19 -19 -18 -17 -17 -16 -16 -15 -15 -14 -14 -14 -15 -14 -14 -13 -13 -13 -13 -13 -12 -12 -12 -14 -14 -14
-23 -23 -24 -24 -24 -24 -24 -24 -24 -24 -24 -24 -24 -23 -23 -23 -23 -23 -22 -21 -22 -22 -22 -21 -21 -20 -20 -21 -20 -19 -18 -18 -17 -16 -16 -16 -16 -15 -15 -14 -14 -14 -14 -13 -13 -13 -14 -13 -14 -14 -14 -14 -14 -13
-23 -23 -23 -23 -24 -24 -24 -24 -24 -24 -24 -23 -23 -23 -23 -23 -22 -22 -22 -21 -21 -21 -21 -21 -20 -20 -20 -20 -20 -19 -18 -17 -17 -17 -17 -17 -16 -16 -16 -15 -15 -14 -14 -14 -15 -15 -16 -15 -14 -15 -15 -15 -14 -13
-23 -23 -23 -23 -23 -23 -23 -22 -22 -22 -23 -22 -22 -22 -22 -22 -22 -22 -22 -21 -21 -21 -21 -21 -20 -20 -20 -19 -19 -19 -18 -18 -17 -18 -17 -17 -17 -17 -17 -16 -15 -15 -15 -15 -15 -15 -15 -15 -15 -14 -14 -14 -14 -13
-22 -22 -22 -22 -22 -23 -23 -23 -22 -22 -22 -22 -22 -22 -22 -22 -22 -22 -21 -21 -21 -21 -21 -20 -20 -19 -19 -19 -19 -19 -18 -18 -17 -18 -17 -17 -17 -17 -17 -17 -17 -17 -17 -16 -16 -16 -15 -15 -14 -14 -14 -14 -13 -13
-22 -22 -22 -22 -22 -22 -22 -21 -22 -22 -22 -21 -22 -22 -22 -22 -22 -21 -21 -21 -21 -21 -20 -20 -20 -20 -20 -19 -19 -18 -18 -18 -17 -16 -17 -17 -17 -17 -17 -17 -18 -18 -18 -18 -18 -16 -16 -16 -15 -15 -14 -14 -14 -14
-21 -22 -21 -22 -22 -22 -21 -21 -22 -22 -21 -22 -22 -22 -22 -22 -21 -21 -21 -21 -21 -20 -20 -20 -20 -20 -19 -19 -19 -18 -18 -18 -18 -17 -17 -17 -17 -17 -17 -17 -17 -17 -17 -17 -16 -16 -16 -16 -16 -16 -15 -15 -15 -14
-21 -21 -21 -21 -21 -21 -21 -21 -21 -21 -21 -21 -22 -22 -22 -22 -22 -21 -21 -21 -20 -20 -20 -20 -20 -20 -20 -19 -19 -18 -18 -18 -18 -18 -18 -18 -17 -17 -17 -17 -17 -17 -17 -17 -17 -17 -16 -16 -16 -16 -15 -15 -15 -15
-20 -20 -20 -21 -21 -20 -21 -21 -21 -21 -21 -21 -21 -21 -21 -21 -21 -21 -21 -21 -20 -20 -21 -21 -20 -20 -19 -19 -19 -19 -18 -18 -18 -18 -18 -18 -17 -17 -17 -17 -18 -18 -17 -17 -17 -16 -16 -16 -16 -16 -16 -16 -16 -16
-20 -20 -20 -20 -20 -20 -20 -20 -21 -21 -21 -21 -20 -20 -20 -20 -20 -21 -21 -21 -21 -21 -21 -21 -20 -20 -20 -20 -19 -19 -19 -19 -18 -18 -18 -18 -18 -18 -18 -18 -18 -17 -17 -17 -17 -17 -17 -17 -17 -16 -16 -16 -17 -17
-19 -19 -20 -20 -20 -20 -20 -20 -20 -20 -20 -20 -20 -20 -20 -20 -20 -20 -20 -20 -20 -20 -20 -20 -20 -19 -19 -19 -19 -19 -19 -19 -19 -18 -18 -19 -18 -18 -18 -18 -18 -18 -17 -17 -17 -17 -17 -17 -17 -17 -17 -17 -17 -17
-19 -19 -19 -19 -19 -20 -20 -20 -20 -20 -20 -20 -20 -20 -20 -20 -20 -20 -20 -20 -20 -19 -19 -19 -19 -19 -19 -19 -19 -19 -19 -19 -19 -19 -19 -19 -19 -18 -18 -18 -18 -18 -18 -18 -18 -18 -18 -18 -18 -18 -17 -17 -17 -17
-19 -19 -19 -19 -19 -19 -20 -19 -20 -20 -20 -19 -19 -19 -19 -20 -20 -20 -19 -19 -19 -19 -19 -19 -19 -19 -20 -20 -19 -19 -19 -19 -19 -19 -19 -19 -19 -19 -19 -18 -18 -18 -18 -18 -18 -18 -18 -18 -18 -18 -18 -18 -18 -18
-19 -19 -19 -19 -19 -20 -20 -19 -19 -20 -20 -20 -20 -19 -19 -19 -20 -19 -19 -20 -20 -19 -19 -19 -19 -19 -19 -19 -19 -19 -19 -19 -19 -19 -19 -19 -19 -19 -19 -18 -18 -18 -18 -18 -18 -18 -18 -18 -18 -18 -18 -18 -18 -18
-19 -19 -19 -19 -20 -20 -20 -20 -20 -20 -20 -20 -20 -20 -20 -20 -20 -20 -19 -19 -19 -19 -19 -19 -19 -19 -19 -19 -19 -19 -19 -19 -19 -19 -19 -19 -19 -19 -19 -19 -19 -18 -19 -19 -19 -19 -19 -19 -19 -18 -18 -18 -18 -18
-18 -19 -19 -20 -20 -20 -20 -20 -20 -20 -20 -20 -20 -20 -20 -20 -20 -20 -20 -20 -20 -20 -19 -19 -19 -19 -19 -19 -19 -19 -19 -20 -20 -20 -20 -20 -19 -19 -19 -19 -19 -18 -19 -19 -19 -19 -19 -19 -19 -19 -19 -19 -19 -19
-19 -19 -19 -19 -20 -20 -20 -20 -20 -20 -20 -20 -20 -20 -20 -20 -20 -20 -20 -19 -20 -20 -20 -19 -20 -20 -20 -20 -20 -20 -19 -19 -19 -19 -19 -20 -20 -20 -20 -20 -19 -19 -19 -20 -20 -20 -20 -20 -20 -20 -20 -20 -20 -20
-19 -19 -19 -19 -19 -19 -19 -19 -19 -19 -19 -19 -19 -19 -19 -20 -19 -19 -19 -19 -19 -19 -19 -19 -20 -20 -20 -20 -20 -20 -20 -20 -20 -20 -20 -19 -19 -20 -20 -20 -20 -20 -20 -20 -20 -20 -20 -20 -20 -20 -20 -20 -20 -20
-19 -19 -19 -19 -19 -19 -19 -19 -19 -19 -19 -19 -19 -19 -19 -19 -19 -19 -19 -20 -20 -20 -20 -20 -20 -20 -20 -20 -20 -20 -20 -20 -20 -20 -20 -20 -20 -20 -20 -21 -21 -21 -21 -21 -21 -21 -21 -21 -21 -21 -21 -21 -21 -21
-19 -19 -19 -19 -19 -19 -19 -19 -19 -19 -19 -19 -19 -19 -19 -19 -19 -19 -20 -20 -20 -20 -20 -20 -21 -21 -21 -21 -21 -21 -20 -21 -21 -21 -21 -21 -21 -21 -21 -21 -21 -21 -21 -21 -21 -21 -21 -22 -22 -22 -22 -22 -22 -22
-19 -19 -19 -19 -19 -19 -19 -19 -19 -19 -19 -19 -19 -19 -19 -20 -20 -20 -20 -20 -20 -21 -20 -20 -21 -21 -21 -21 -21 -21 -21 -21 -21 -22 -22 -22 -22 -22 -21 -22 -22 -22 -22 -23 -23 -23 -23 -23 -23 -24 -24 -24 -24 -24
-18 -18 -18 -18 -19 -19 -19 -19 -19 -19 -19 -19 -19 -19 -19 -19 -20 -20 -20 -20 -20 -21 -21 -21 -21 -21 -21 -21 -22 -22 -22 -22 -22 -22 -22 -22 -22 -23 -23 -23 -24 -24 -24 -24 -24 -24 -24 -24 -25 -25 -25 -25 -25 -25
-18 -18 -18 -18 -18 -18 -18 -18 -19 -19 -19 -19 -19 -19 -20 -20 -20 -20 -20 -21 -21 -21 -21 -21 -21 -22 -22 -22 -23 -23 -23 -23 -24 -24 -24 -24 -24 -24 -24 -24 -24 -24 -24 -24 -24 -24 -25 -25 -25 -25 -26 -26 -27 -27

GFSWCAN_500_temp_009.txt.gz
Temp
-23 -23 -24 -26 -27 -27 -27 -27 -27 -27 -27 -26 -26 -26 -26 -27 -27 -26 -26 -26 -26 -25 -26 -25 -25 -24 -23 -22 -22 -21 -21 -20 -19 -18 -18 -17 -17 -16 -16 -15 -13 -12 -12 -12 -13 -12 -11 -10 -10 -10 -11 -11 -10 -11
-23 -24 -24 -25 -25 -26 -26 -26 -26 -26 -27 -27 -27 -27 -27 -27 -27 -27 -27 -27 -26 -25 -26 -25 -24 -24 -23 -22 -22 -21 -20 -20 -19 -19 -17 -17 -16 -16 -15 -14 -14 -13 -12 -12 -13 -12 -12 -12 -11 -10 -11 -11 -11 -11
-24 -24 -24 -25 -25 -26 -26 -26 -26 -26 -26 -26 -27 -27 -27 -27 -27 -27 -27 -27 -26 -26 -25 -25 -25 -24 -23 -23 -22 -21 -20 -19 -20 -18 -17 -16 -15 -14 -14 -13 -13 -14 -13 -13 -12 -11 -11 -12 -11 -12 -11 -11 -11 -11
-24 -24 -25 -25 -25 -25 -25 -25 -26 -26 -26 -26 -26 -26 -26 -26 -26 -26 -26 -26 -25 -25 -25 -25 -24 -24 -23 -23 -22 -21 -21 -20 -19 -18 -17 -16 -14 -13 -14 -12 -11 -12 -13 -13 -13 -11 -11 -11 -11 -11 -11 -10 -11 -11
-24 -24 -24 -24 -25 -25 -25 -25 -25 -26 -26 -26 -26 -26 -26 -26 -26 -25 -25 -25 -25 -24 -24 -24 -24 -23 -23 -23 -22 -21 -21 -20 -19 -18 -17 -16 -15 -15 -14 -11 -12 -10 -12 -11 -11 -10 -11 -12 -12 -11 -11 -10 -10 -11
-24 -24 -24 -24 -24 -25 -25 -25 -25 -25 -25 -25 -25 -25 -25 -25 -25 -25 -25 -24 -24 -24 -24 -23 -23 -23 -23 -22 -21 -21 -20 -19 -19 -17 -17 -16 -15 -15 -14 -14 -13 -12 -12 -12 -11 -11 -12 -11 -11 -11 -11 -10 -10 -11
-24 -24 -24 -24 -24 -25 -25 -25 -25 -25 -25 -25 -25 -25 -25 -25 -24 -24 -24 -24 -23 -23 -23 -23 -22 -22 -22 -22 -21 -21 -20 -19 -18 -17 -17 -16 -16 -15 -15 -14 -15 -14 -13 -13 -12 -12 -12 -12 -11 -11 -10 -10 -11 -11
-23 -23 -23 -24 -24 -25 -25 -25 -25 -25 -25 -24 -24 -24 -24 -24 -24 -24 -24 -23 -23 -23 -23 -22 -21 -21 -22 -21 -21 -21 -19 -19 -18 -17 -17 -16 -15 -15 -15 -15 -15 -14 -13 -13 -13 -13 -12 -12 -12 -12 -11 -11 -12 -11
-23 -23 -23 -23 -23 -24 -24 -24 -24 -24 -24 -24 -24 -24 -24 -24 -24 -24 -23 -23 -23 -22 -22 -22 -22 -21 -21 -20 -20 -19 -19 -19 -18 -17 -17 -15 -15 -14 -14 -14 -15 -14 -14 -13 -13 -12 -12 -12 -12 -12 -11 -11 -11 -11
-22 -22 -23 -23 -23 -23 -23 -23 -23 -23 -23 -23 -24 -24 -24 -23 -23 -23 -22 -22 -22 -22 -21 -21 -21 -21 -20 -20 -20 -19 -19 -18 -17 -17 -16 -15 -14 -14 -15 -15 -14 -14 -14 -13 -13 -12 -12 -11 -12 -12 -11 -11 -11 -11
-21 -22 -22 -22 -23 -23 -23 -23 -23 -23 -23 -23 -24 -23 -23 -23 -22 -22 -22 -21 -21 -21 -21 -21 -20 -20 -19 -19 -18 -18 -18 -17 -17 -16 -16 -16 -15 -15 -15 -15 -14 -14 -14 -14 -13 -12 -13 -13 -12 -12 -11 -11 -12 -11
-21 -21 -22 -22 -22 -23 -23 -23 -23 -23 -23 -23 -23 -23 -23 -22 -21 -22 -21 -21 -20 -19 -20 -20 -20 -20 -19 -18 -18 -18 -17 -17 -16 -16 -16 -16 -15 -15 -15 -15 -14 -14 -14 -14 -13 -13 -13 -13 -13 -13 -12 -12 -12 -12
-21 -21 -22 -22 -22 -22 -22 -22 -22 -22 -22 -22 -22 -22 -22 -22 -22 -21 -21 -21 -20 -20 -20 -20 -19 -19 -18 -18 -17 -16 -17 -17 -16 -16 -16 -16 -16 -16 -15 -14 -14 -14 -14 -14 -14 -14 -15 -13 -13 -13 -12 -12 -13 -14
-21 -21 -21 -21 -21 -21 -21 -21 -21 -21 -22 -21 -21 -21 -21 -21 -21 -21 -21 -21 -20 -19 -19 -19 -19 -19 -19 -18 -18 -17 -16 -16 -17 -16 -17 -16 -16 -16 -15 -15 -15 -14 -14 -14 -14 -13 -13 -14 -15 -15 -15 -14 -15 -15
-21 -21 -21 -21 -21 -21 -21 -21 -21 -22 -22 -21 -21 -21 -21 -21 -21 -21 -21 -21 -20 -20 -20 -20 -19 -19 -19 -18 -18 -17 -17 -17 -17 -17 -16 -17 -17 -16 -16 -15 -15 -15 -14 -14 -14 -14 -14 -15 -16 -15 -15 -15 -15 -15
-20 -20 -21 -21 -21 -21 -21 -21 -21 -21 -21 -21 -21 -21 -21 -21 -21 -21 -21 -20 -19 -20 -19 -20 -19 -18 -18 -18 -18 -17 -17 -17 -17 -17 -17 -17 -17 -16 -17 -17 -16 -16 -15 -15 -15 -14 -16 -16 -14 -14 -14 -14 -14 -14
-20 -20 -20 -20 -21 -21 -21 -21 -21 -21 -22 -21 -21 -21 -21 -21 -21 -20 -20 -19 -20 -20 -19 -19 -19 -18 -18 -18 -18 -17 -17 -17 -17 -17 -17 -17 -17 -17 -17 -17 -17 -17 -17 -16 -16 -17 -16 -16 -16 -15 -15 -14 -14 -15
-19 -19 -20 -20 -20 -20 -20 -20 -21 -21 -21 -21 -21 -22 -21 -21 -20 -20 -19 -19 -19 -19 -19 -19 -19 -18 -18 -18 -18 -18 -17 -17 -17 -17 -17 -17 -17 -17 -17 -17 -17 -17 -17 -17 -16 -16 -17 -16 -16 -16 -16 -16 -15 -15
-19 -19 -20 -20 -20 -20 -20 -20 -20 -20 -20 -21 -20 -21 -21 -21 -20 -20 -19 -19 -19 -19 -19 -19 -18 -18 -18 -18 -18 -17 -18 -17 -17 -17 -17 -17 -17 -17 -17 -17 -17 -17 -18 -18 -17 -17 -17 -17 -17 -16 -16 -16 -16 -15
-19 -19 -19 -19 -19 -20 -20 -20 -20 -20 -20 -20 -20 -20 -20 -20 -20 -20 -20 -20 -20 -20 -19 -19 -19 -18 -18 -18 -18 -18 -18 -18 -18 -18 -18 -18 -18 -18 -18 -19 -19 -18 -18 -18 -17 -17 -17 -17 -17 -17 -17 -17 -17 -17
-19 -19 -19 -19 -19 -19 -19 -20 -20 -20 -20 -20 -20 -20 -20 -20 -20 -20 -20 -19 -20 -20 -19 -19 -19 -19 -19 -19 -18 -18 -18 -18 -18 -18 -18 -19 -18 -18 -18 -18 -18 -18 -18 -18 -18 -18 -18 -18 -18 -18 -17 -17 -17 -17
-18 -19 -19 -19 -19 -19 -19 -19 -19 -19 -19 -19 -19 -19 -19 -19 -19 -19 -19 -19 -19 -19 -19 -19 -19 -19 -19 -19 -19 -19 -19 -19 -19 -19 -19 -19 -19 -18 -19 -19 -18 -18 -18 -18 -18 -18 -18 -18 -18 -18 -18 -18 -17 -17
-19 -19 -19 -19 -18 -19 -19 -19 -19 -19 -19 -19 -19 -19 -19 -19 -19 -19 -19 -19 -19 -19 -19 -19 -19 -19 -19 -19 -19 -19 -19 -19 -19 -19 -19 -19 -19 -19 -19 -19 -18 -18 -18 -18 -18 -18 -18 -18 -18 -18 -18 -17 -17 -17
-19 -19 -19 -18 -18 -19 -19 -19 -19 -19 -19 -20 -19 -19 -19 -19 -19 -19 -19 -19 -19 -19 -20 -20 -19 -19 -19 -19 -19 -19 -19 -19 -19 -19 -19 -19 -19 -19 -19 -19 -19 -19 -19 -19 -18 -18 -18 -18 -18 -18 -18 -18 -18 -18
-19 -19 -19 -19 -19 -19 -19 -19 -19 -19 -19 -19 -19 -19 -19 -19 -19 -19 -19 -19 -19 -19 -19 -19 -19 -19 -19 -19 -19 -19 -19 -19 -19 -19 -19 -19 -19 -19 -19 -19 -18 -18 -19 -18 -18 -18 -18 -18 -18 -18 -18 -18 -18 -19
-18 -19 -19 -19 -19 -19 -19 -19 -19 -19 -19 -19 -19 -19 -19 -19 -19 -19 -19 -20 -20 -19 -19 -19 -19 -19 -19 -19 -19 -19 -19 -19 -19 -19 -19 -19 -19 -19 -19 -19 -19 -19 -19 -18 -19 -19 -19 -19 -19 -19 -19 -19 -19 -19
-18 -19 -19 -19 -19 -19 -19 -19 -19 -19 -19 -19 -19 -19 -19 -19 -19 -19 -19 -19 -19 -19 -19 -19 -19 -20 -20 -20 -20 -20 -20 -20 -20 -20 -19 -19 -19 -19 -20 -19 -19 -20 -19 -19 -19 -19 -19 -19 -19 -19 -19 -20 -20 -20
-19 -19 -19 -19 -19 -19 -19 -19 -19 -19 -19 -19 -19 -19 -19 -19 -19 -19 -19 -19 -19 -19 -20 -20 -20 -20 -19 -20 -20 -20 -20 -20 -20 -20 -20 -20 -19 -19 -20 -20 -19 -20 -20 -19 -20 -20 -20 -20 -20 -20 -20 -20 -20 -21
-19 -19 -19 -19 -19 -19 -19 -19 -19 -19 -19 -19 -19 -19 -19 -19 -19 -19 -19 -19 -19 -19 -20 -20 -21 -21 -21 -21 -20 -20 -20 -20 -20 -20 -21 -21 -21 -21 -21 -21 -21 -21 -21 -21 -20 -20 -21 -21 -21 -21 -22 -22 -22 -22
-19 -19 -19 -19 -19 -19 -19 -19 -19 -19 -19 -19 -19 -19 -19 -19 -19 -19 -20 -20 -20 -20 -20 -21 -21 -21 -21 -21 -21 -22 -21 -22 -22 -22 -22 -21 -21 -21 -21 -21 -21 -22 -22 -22 -22 -22 -22 -23 -23 -23 -23 -23 -23 -24
-18 -18 -18 -18 -18 -18 -18 -19 -19 -19 -19 -19 -19 -20 -20 -20 -20 -20 -20 -20 -20 -21 -21 -21 -22 -22 -22 -22 -23 -23 -23 -23 -23 -23 -23 -23 -23 -23 -23 -23 -23 -23 -23 -23 -23 -23 -23 -23 -23 -24 -24 -24 -24 -25
-18 -18 -18 -18 -18 -18 -18 -19 -19 -19 -19 -19 -19 -19 -20 -20 -20 -20 -21 -21 -21 -21 -22 -22 -22 -22 -22 -23 -23 -23 -23 -24 -23 -23 -23 -23 -23 -23 -23 -23 -23 -23 -23 -23 -23 -24 -24 -24 -24 -24 -25 -25 -25 -26
-18 -18 -18 -18 -18 -18 -18 -19 -19 -19 -19 -19 -20 -20 -20 -20 -21 -21 -21 -21 -22 -22 -22 -22 -22 -22 -22 -22 -22 -23 -23 -23 -23 -23 -23 -23 -23 -23 -23 -23 -23 -23 -24 -24 -24 -24 -24 -25 -25 -25 -25 -25 -26 -26

GFSWCAN_500_temp_012.txt.gz
Temp
-22 -22 -23 -23 -24 -24 -24 -25 -25 -25 -26 -26 -26 -26 -26 -26 -26 -26 -26 -26 -26 -25 -26 -25 -25 -25 -24 -24 -22 -21 -21 -20 -21 -18 -17 -17 -16 -16 -15 -14 -14 -13 -13 -12 -12 -12 -10 -10 -9 -9 -9 -9 -9 -9
-22 -23 -23 -24 -24 -24 -24 -24 -25 -25 -25 -26 -26 -26 -26 -27 -27 -27 -26 -26 -26 -25 -26 -25 -25 -24 -24 -23 -22 -21 -22 -21 -20 -18 -18 -17 -16 -15 -15 -14 -14 -14 -13 -12 -11 -11 -10 -10 -10 -10 -10 -10 -9 -9
-23 -23 -24 -23 -24 -24 -24 -25 -25 -25 -25 -26 -26 -26 -26 -26 -27 -27 -26 -26 -26 -26 -26 -25 -25 -24 -24 -23 -22 -22 -21 -19 -20 -19 -18 -17 -16 -15 -15 -14 -14 -15 -15 -15 -13 -13 -12 -10 -11 -11 -10 -10 -9 -9
-23 -23 -23 -23 -24 -24 -24 -25 -25 -25 -25 -25 -26 -26 -26 -26 -26 -26 -26 -26 -26 -25 -25 -24 -24 -24 -23 -22 -22 -21 -21 -20 -19 -20 -18 -17 -16 -16 -16 -15 -14 -14 -14 -14 -14 -13 -12 -11 -10 -10 -10 -9 -9 -9
-22 -22 -23 -23 -24 -24 -24 -24 -24 -25 -25 -25 -25 -25 -25 -25 -25 -25 -25 -25 -25 -24 -24 -24 -24 -23 -23 -22 -22 -21 -21 -20 -20 -19 -17 -17 -16 -15 -15 -15 -14 -14 -13 -13 -14 -14 -13 -12 -12 -11 -10 -10 -10 -10
-22 -22 -23 -23 -24 -24 -24 -24 -24 -24 -24 -24 -24 -24 -24 -24 -24 -24 -24 -24 -24 -23 -23 -23 -23 -22 -22 -22 -22 -22 -21 -20 -20 -19 -18 -18 -17 -16 -15 -14 -13 -13 -13 -12 -12 -12 -9 -12 -12 -11 -10 -9 -10 -10
-21 -22 -22 -23 -23 -23 -23 -23 -23 -24 -24 -23 -23 -24 -24 -23 -24 -23 -23 -23 -23 -23 -23 -23 -22 -22 -21 -21 -21 -21 -21 -20 -20 -19 -18 -17 -17 -16 -15 -14 -13 -12 -12 -12 -12 -12 -11 -10 -12 -11 -10 -10 -10 -10
-21 -22 -22 -22 -22 -23 -23 -23 -23 -23 -23 -23 -23 -23 -23 -23 -23 -23 -22 -22 -22 -22 -22 -22 -21 -21 -20 -20 -20 -21 -20 -19 -19 -18 -18 -17 -17 -16 -15 -14 -13 -13 -12 -12 -12 -12 -12 -12 -12 -11 -10 -10 -10 -10
-21 -21 -22 -22 -22 -22 -22 -23 -22 -22 -23 -23 -23 -23 -22 -22 -22 -22 -22 -22 -21 -21 -21 -21 -21 -20 -20 -19 -20 -19 -18 -18 -18 -17 -17 -17 -16 -15 -15 -15 -14 -13 -12 -14 -13 -13 -13 -13 -12 -11 -11 -10 -10 -10
-21 -21 -21 -21 -21 -22 -22 -22 -22 -22 -22 -22 -22 -22 -22 -22 -22 -21 -21 -21 -21 -21 -21 -21 -20 -19 -19 -19 -19 -18 -18 -18 -17 -17 -16 -15 -15 -15 -14 -15 -15 -14 -14 -14 -13 -13 -13 -13 -12 -11 -11 -11 -11 -10
-20 -21 -20 -21 -21 -21 -21 -22 -22 -21 -22 -22 -22 -21 -21 -21 -21 -21 -21 -20 -20 -20 -20 -20 -19 -19 -19 -18 -18 -18 -18 -17 -17 -16 -16 -16 -15 -15 -15 -15 -15 -15 -15 -15 -14 -14 -14 -13 -13 -12 -11 -11 -12 -12
-20 -20 -21 -21 -20 -21 -21 -21 -21 -21 -21 -21 -21 -21 -21 -20 -20 -20 -20 -19 -19 -19 -19 -19 -18 -18 -18 -17 -17 -17 -17 -16 -16 -16 -16 -16 -15 -15 -15 -15 -15 -15 -14 -14 -14 -14 -13 -12 -13 -12 -12 -12 -11 -11
-20 -20 -20 -21 -21 -21 -21 -20 -20 -20 -20 -20 -20 -21 -20 -20 -20 -20 -20 -19 -19 -18 -19 -18 -18 -17 -17 -17 -17 -17 -16 -16 -16 -16 -16 -16 -16 -15 -15 -15 -15 -15 -15 -14 -14 -13 -13 -13 -12 -12 -11 -12 -12 -12
-20 -20 -20 -20 -21 -21 -21 -21 -20 -20 -20 -20 -20 -20 -20 -20 -20 -20 -20 -19 -18 -18 -19 -18 -18 -18 -17 -17 -17 -16 -16 -16 -16 -16 -16 -16 -16 -16 -15 -15 -15 -14 -14 -14 -14 -13 -13 -13 -12 -13 -12 -12 -12 -12
-19 -20 -20 -20 -20 -20 -21 -21 -20 -20 -20 -20 -20 -20 -20 -20 -20 -20 -20 -19 -18 -18 -18 -18 -18 -18 -17 -17 -17 -16 -16 -16 -16 -16 -16 -16 -16 -16 -16 -15 -15 -15 -14 -14 -14 -14 -13 -13 -14 -14 -13 -14 -14 -14
-19 -19 -20 -20 -20 -20 -20 -20 -20 -20 -20 -20 -20 -20 -20 -20 -20 -19 -19 -19 -19 -19 -18 -18 -18 -17 -17 -17 -17 -16 -16 -17 -17 -17 -16 -17 -17 -16 -16 -16 -15 -15 -15 -15 -15 -14 -14 -14 -14 -14 -14 -15 -15 -15
-19 -19 -19 -20 -20 -20 -20 -20 -21 -21 -21 -20 -20 -20 -20 -20 -19 -19 -18 -18 -18 -18 -18 -18 -17 -17 -17 -17 -17 -17 -17 -16 -17 -17 -17 -17 -17 -17 -16 -16 -16 -16 -16 -16 -16 -15 -15 -15 -15 -16 -17 -16 -15 -15
-19 -19 -19 -19 -20 -20 -20 -20 -20 -20 -21 -21 -20 -20 -20 -19 -19 -19 -18 -19 -18 -18 -18 -18 -17 -17 -17 -17 -17 -17 -17 -17 -17 -17 -17 -17 -17 -17 -17 -17 -16 -17 -17 -17 -17 -17 -17 -17 -17 -17 -16 -16 -16 -16
-19 -19 -19 -19 -20 -20 -20 -20 -20 -20 -20 -20 -20 -20 -20 -20 -19 -19 -18 -18 -18 -18 -18 -18 -17 -18 -17 -17 -17 -17 -17 -17 -17 -17 -17 -17 -16 -17 -16 -17 -17 -17 -17 -17 -17 -17 -17 -17 -17 -17 -16 -16 -16 -16
-18 -18 -19 -19 -19 -19 -19 -19 -19 -19 -19 -19 -20 -20 -20 -20 -19 -19 -19 -19 -19 -18 -18 -17 -18 -18 -18 -18 -17 -17 -17 -17 -17 -17 -17 -17 -17 -17 -17 -17 -17 -18 -18 -18 -18 -17 -17 -17 -17 -17 -17 -17 -17 -16
-18 -18 -18 -18 -19 -19 -19 -19 -19 -19 -19 -19 -19 -19 -19 -20 -20 -19 -19 -19 -19 -18 -18 -18 -18 -18 -18 -18 -18 -18 -18 -18 -18 -18 -18 -18 -18 -18 -18 -18 -18 -18 -18 -18 -18 -18 -18 -17 -17 -17 -17 -18 -17 -17
-18 -18 -18 -18 -18 -18 -18 -19 -19 -19 -19 -19 -19 -19 -19 -19 -19 -19 -19 -19 -18 -19 -18 -18 -19 -19 -19 -19 -19 -18 -18 -19 -19 -18 -19 -19 -18 -18 -18 -18 -18 -18 -18 -18 -18 -18 -18 -18 -18 -18 -18 -18 -18 -18
-18 -18 -18 -18 -18 -18 -18 -18 -19 -19 -19 -19 -19 -19 -19 -19 -19 -19 -19 -19 -19 -19 -19 -19 -18 -19 -19 -19 -19 -19 -18 -18 -19 -18 -18 -18 -19 -19 -18 -18 -18 -19 -19 -19 -18 -18 -18 -18 -18 -18 -18 -18 -18 -18
-18 -19 -18 -18 -18 -18 -18 -18 -18 -18 -19 -19 -19 -19 -19 -19 -19 -19 -18 -18 -19 -18 -18 -18 -18 -18 -18 -19 -19 -19 -18 -18 -18 -19 -19 -19 -19 -19 -19 -19 -18 -18 -19 -19 -19 -18 -18 -18 -18 -18 -18 -18 -18 -18
-19 -18 -18 -18 -18 -18 -18 -18 -19 -19 -19 -19 -19 -19 -18 -18 -19 -19 -19 -19 -19 -19 -19 -19 -19 -19 -19 -19 -19 -19 -19 -19 -19 -19 -19 -19 -19 -19 -19 -19 -18 -18 -19 -18 -18 -18 -18 -18 -19 -19 -19 -18 -18 -19
-18 -18 -18 -18 -18 -18 -18 -18 -18 -18 -18 -19 -19 -18 -18 -18 -19 -19 -19 -19 -19 -19 -19 -18 -19 -19 -19 -19 -19 -19 -19 -20 -20 -20 -20 -19 -19 -19 -20 -20 -19 -19 -19 -19 -19 -19 -19 -19 -20 -20 -19 -19 -19 -19
-18 -18 -18 -18 -18 -18 -18 -18 -18 -18 -18 -19 -19 -19 -19 -19 -19 -19 -19 -19 -19 -19 -19 -19 -19 -19 -19 -19 -19 -20 -19 -20 -20 -20 -20 -20 -19 -20 -20 -20 -20 -20 -20 -20 -20 -20 -20 -20 -20 -20 -20 -20 -20 -20
-18 -18 -17 -17 -18 -18 -18 -18 -18 -18 -19 -19 -19 -19 -19 -19 -19 -19 -19 -19 -19 -19 -19 -20 -20 -20 -20 -20 -20 -20 -20 -21 -21 -21 -21 -21 -21 -20 -20 -21 -20 -20 -20 -20 -20 -20 -21 -20 -20 -21 -21 -21 -21 -21
-18 -17 -18 -18 -18 -18 -18 -18 -18 -19 -19 -19 -19 -19 -20 -20 -20 -20 -20 -20 -20 -20 -20 -20 -21 -21 -21 -21 -21 -21 -21 -22 -22 -22 -23 -23 -23 -23 -22 -22 -22 -22 -22 -21 -21 -21 -22 -22 -22 -22 -23 -23 -23 -23
-17 -17 -18 -18 -18 -18 -18 -18 -19 -19 -19 -19 -19 -19 -19 -20 -20 -20 -20 -20 -20 -20 -21 -21 -21 -21 -21 -21 -21 -21 -21 -22 -23 -23 -23 -23 -23 -23 -23 -23 -23 -23 -23 -23 -23 -22 -22 -23 -23 -23 -23 -23 -23 -23
-17 -18 -18 -18 -18 -18 -18 -18 -19 -19 -19 -19 -19 -19 -19 -20 -20 -20 -20 -21 -21 -21 -21 -21 -21 -21 -21 -21 -22 -22 -22 -22 -22 -23 -23 -23 -23 -23 -23 -23 -23 -23 -23 -23 -23 -23 -23 -23 -23 -24 -24 -24 -24 -24
-17 -17 -17 -17 -18 -18 -18 -18 -18 -18 -19 -19 -19 -19 -19 -20 -20 -20 -20 -20 -20 -21 -21 -21 -21 -21 -21 -21 -21 -22 -22 -22 -22 -23 -23 -23 -23 -23 -23 -23 -23 -23 -23 -23 -23 -24 -24 -24 -24 -24 -25 -25 -25 -25
-17 -17 -17 -18 -18 -17 -18 -18 -18 -19 -19 -19 -19 -19 -19 -20 -20 -20 -20 -20 -20 -20 -21 -21 -21 -21 -21 -21 -22 -22 -22 -22 -22 -22 -22 -23 -23 -23 -23 -23 -23 -23 -23 -24 -24 -24 -24 -25 -25 -25 -25 -25 -25 -25

GFSWCAN_500_temp_015.txt.gz
Temp
-21 -22 -22 -22 -22 -23 -23 -24 -24 -24 -25 -25 -25 -26 -26 -26 -26 -26 -26 -26 -26 -25 -26 -25 -25 -25 -25 -25 -24 -24 -23 -23 -21 -21 -21 -19 -18 -17 -16 -14 -14 -15 -14 -13 -13 -13 -12 -11 -10 -10 -9 -9 -9 -8
-21 -21 -21 -22 -22 -23 -24 -24 -24 -24 -24 -25 -25 -25 -26 -26 -26 -26 -26 -26 -26 -25 -25 -25 -25 -25 -24 -24 -24 -24 -23 -22 -22 -21 -21 -18 -17 -16 -16 -14 -14 -14 -13 -13 -12 -13 -13 -12 -11 -10 -10 -10 -8 -8
-20 -21 -21 -22 -22 -23 -23 -24 -24 -24 -24 -24 -24 -25 -25 -25 -25 -26 -26 -26 -26 -26 -25 -25 -25 -24 -24 -24 -23 -23 -22 -22 -21 -21 -21 -19 -18 -16 -16 -16 -15 -14 -13 -12 -11 -13 -11 -11 -10 -10 -10 -9 -10 -9
-20 -21 -21 -22 -22 -23 -23 -23 -23 -24 -24 -24 -24 -24 -24 -24 -24 -25 -25 -25 -25 -25 -24 -24 -24 -23 -23 -23 -22 -22 -22 -21 -21 -20 -20 -19 -17 -17 -17 -15 -15 -14 -13 -13 -12 -12 -11 -10 -9 -10 -10 -10 -11 -10
-20 -21 -21 -22 -22 -22 -22 -23 -23 -23 -23 -23 -24 -24 -23 -24 -24 -24 -24 -24 -24 -24 -24 -24 -23 -23 -23 -22 -21 -21 -21 -21 -20 -20 -20 -19 -18 -17 -16 -15 -15 -14 -13 -13 -12 -11 -10 -10 -11 -9 -11 -11 -10 -10
-20 -20 -21 -21 -22 -22 -22 -22 -22 -22 -23 -23 -23 -23 -23 -23 -23 -23 -23 -23 -23 -23 -23 -23 -23 -22 -22 -22 -21 -21 -21 -21 -21 -20 -18 -18 -18 -17 -16 -15 -14 -14 -14 -13 -12 -11 -10 -9 -10 -11 -10 -10 -10 -9
-20 -20 -20 -21 -21 -22 -22 -22 -22 -22 -22 -22 -22 -22 -22 -22 -22 -22 -22 -22 -22 -22 -22 -22 -22 -22 -21 -21 -21 -21 -21 -21 -20 -19 -18 -17 -17 -16 -14 -14 -14 -14 -13 -13 -13 -12 -12 -11 -10 -10 -8 -8 -9 -9
-20 -20 -20 -20 -21 -21 -21 -21 -21 -21 -22 -22 -22 -22 -21 -21 -22 -22 -22 -21 -21 -21 -21 -21 -21 -21 -20 -19 -20 -20 -20 -20 -19 -18 -17 -17 -17 -17 -16 -15 -14 -14 -13 -13 -13 -13 -13 -12 -11 -10 -11 -11 -10 -10
-20 -20 -20 -20 -20 -20 -20 -20 -21 -21 -21 -21 -21 -21 -21 -21 -21 -20 -21 -21 -21 -20 -20 -20 -20 -20 -20 -20 -20 -19 -18 -18 -18 -17 -17 -17 -17 -16 -16 -15 -14 -13 -13 -13 -13 -13 -13 -11 -11 -11 -12 -12 -11 -11
-19 -20 -20 -20 -20 -20 -19 -20 -20 -20 -20 -20 -20 -20 -20 -20 -20 -20 -20 -20 -20 -20 -20 -19 -19 -19 -19 -19 -19 -18 -18 -17 -17 -17 -17 -16 -16 -16 -16 -15 -14 -13 -13 -13 -13 -13 -12 -12 -12 -12 -12 -12 -12 -12
-19 -20 -20 -20 -20 -20 -20 -20 -19 -19 -20 -20 -20 -20 -19 -19 -19 -19 -19 -19 -19 -19 -19 -19 -18 -18 -18 -18 -18 -18 -17 -17 -17 -16 -16 -16 -16 -15 -15 -15 -14 -14 -14 -13 -13 -13 -13 -13 -12 -13 -13 -12 -12 -11
-19 -20 -20 -20 -20 -20 -20 -20 -19 -19 -19 -19 -19 -19 -19 -19 -19 -19 -18 -18 -18 -18 -18 -18 -17 -18 -17 -17 -17 -17 -17 -16 -16 -17 -16 -16 -16 -15 -14 -15 -15 -14 -14 -14 -14 -13 -13 -13 -13 -13 -12 -12 -11 -11
-19 -19 -20 -20 -20 -19 -20 -20 -20 -19 -18 -19 -19 -19 -18 -20 -19 -19 -18 -18 -18 -18 -18 -17 -17 -17 -17 -17 -17 -16 -16 -16 -16 -16 -16 -16 -16 -15 -15 -15 -15 -15 -15 -14 -14 -14 -13 -13 -13 -13 -13 -12 -11 -11
-19 -19 -20 -20 -20 -20 -20 -20 -19 -19 -18 -19 -19 -19 -19 -19 -20 -19 -18 -18 -19 -18 -18 -17 -17 -17 -17 -16 -16 -16 -16 -16 -16 -16 -16 -16 -16 -16 -16 -15 -14 -15 -14 -15 -14 -14 -14 -13 -13 -13 -12 -11 -11 -11
-19 -19 -20 -20 -20 -20 -20 -20 -20 -19 -19 -19 -19 -19 -19 -19 -19 -19 -19 -18 -18 -18 -17 -17 -17 -16 -16 -16 -16 -16 -16 -17 -17 -16 -17 -17 -17 -16 -16 -16 -15 -15 -14 -14 -14 -14 -14 -13 -13 -13 -13 -11 -12 -12
-19 -19 -19 -20 -20 -20 -20 -20 -20 -19 -19 -19 -19 -19 -19 -19 -19 -18 -18 -18 -18 -17 -17 -17 -16 -16 -16 -16 -16 -16 -17 -17 -17 -17 -17 -17 -16 -16 -16 -16 -16 -16 -15 -15 -14 -14 -14 -14 -14 -14 -14 -15 -15 -14
-18 -19 -19 -19 -19 -20 -20 -20 -20 -19 -19 -19 -20 -19 -19 -19 -18 -19 -18 -18 -18 -17 -17 -16 -16 -17 -17 -17 -17 -17 -17 -17 -17 -17 -17 -17 -17 -16 -17 -17 -16 -17 -16 -16 -16 -16 -16 -16 -15 -15 -15 -15 -15 -15
-18 -18 -19 -19 -19 -19 -20 -20 -20 -20 -20 -19 -19 -19 -18 -18 -18 -18 -18 -18 -18 -17 -17 -17 -17 -17 -17 -17 -17 -17 -17 -17 -17 -17 -17 -16 -16 -17 -17 -17 -17 -17 -17 -16 -16 -17 -17 -16 -16 -16 -15 -15 -15 -16
-18 -18 -18 -18 -19 -19 -19 -19 -20 -20 -20 -20 -19 -18 -19 -18 -18 -18 -18 -18 -18 -18 -18 -17 -17 -17 -17 -17 -17 -17 -17 -17 -17 -17 -17 -17 -17 -17 -17 -17 -17 -17 -17 -17 -17 -17 -18 -17 -17 -17 -17 -17 -16 -16
-18 -18 -18 -18 -18 -19 -19 -19 -19 -19 -20 -20 -19 -19 -18 -18 -18 -19 -19 -18 -18 -18 -17 -17 -17 -17 -18 -18 -18 -18 -18 -18 -17 -17 -17 -17 -17 -17 -17 -17 -18 -18 -18 -17 -17 -17 -17 -17 -17 -17 -17 -16 -16 -16
-18 -18 -18 -18 -18 -18 -18 -18 -19 -19 -19 -19 -19 -19 -19 -19 -19 -19 -18 -18 -19 -18 -17 -17 -18 -18 -18 -18 -18 -18 -18 -18 -18 -18 -18 -17 -17 -17 -17 -17 -17 -17 -17 -17 -17 -17 -17 -17 -17 -17 -17 -17 -17 -17
-17 -17 -18 -18 -18 -18 -18 -18 -18 -18 -18 -18 -19 -19 -19 -18 -18 -18 -18 -18 -18 -18 -18 -18 -18 -18 -18 -18 -18 -18 -18 -18 -18 -18 -18 -18 -18 -18 -18 -17 -17 -18 -18 -18 -18 -18 -18 -18 -18 -17 -18 -18 -17 -17
-17 -17 -18 -18 -18 -18 -18 -18 -18 -18 -18 -18 -18 -19 -18 -19 -19 -19 -19 -18 -18 -18 -18 -19 -19 -18 -18 -18 -18 -18 -19 -19 -19 -19 -19 -18 -19 -19 -18 -18 -19 -19 -19 -19 -19 -19 -19 -19 -18 -18 -18 -18 -18 -18
-18 -18 -18 -18 -18 -18 -18 -18 -18 -18 -18 -19 -19 -18 -18 -18 -18 -18 -18 -18 -18 -18 -18 -18 -18 -18 -18 -18 -18 -18 -19 -19 -19 -19 -19 -19 -18 -19 -19 -19 -19 -19 -19 -18 -18 -19 -18 -18 -18 -19 -18 -18 -18 -18
-18 -18 -18 -18 -18 -18 -18 -18 -18 -18 -18 -18 -18 -18 -19 -18 -18 -18 -18 -19 -19 -19 -19 -19 -19 -19 -19 -19 -19 -19 -19 -20 -19 -19 -18 -18 -19 -19 -19 -19 -20 -20 -19 -19 -19 -19 -18 -19 -19 -19 -19 -19 -19 -19
-18 -18 -18 -18 -18 -18 -18 -18 -18 -18 -18 -18 -18 -19 -19 -19 -19 -19 -19 -19 -19 -19 -20 -19 -19 -19 -19 -19 -19 -19 -20 -20 -20 -20 -19 -19 -19 -20 -20 -20 -20 -21 -20 -20 -20 -20 -20 -20 -20 -20 -20 -20 -19 -19
-18 -18 -18 -18 -18 -18 -18 -18 -18 -18 -18 -18 -18 -19 -19 -19 -19 -19 -20 -20 -20 -20 -20 -19 -19 -19 -20 -20 -20 -20 -20 -21 -20 -20 -20 -20 -20 -21 -22 -22 -21 -22 -21 -21 -21 -21 -21 -21 -21 -21 -21 -20 -20 -21
-18 -18 -18 -18 -18 -18 -18 -18 -18 -18 -18 -18 -19 -19 -19 -19 -20 -20 -20 -20 -20 -20 -20 -20 -20 -20 -20 -20 -20 -21 -21 -21 -21 -21 -20 -21 -21 -22 -22 -22 -23 -23 -23 -23 -22 -22 -22 -22 -22 -22 -22 -22 -22 -23
-18 -18 -18 -18 -17 -17 -17 -18 -18 -18 -18 -18 -18 -19 -19 -19 -20 -20 -20 -19 -19 -19 -19 -20 -20 -21 -21 -21 -20 -20 -21 -21 -21 -22 -22 -22 -22 -22 -22 -22 -23 -23 -23 -23 -23 -23 -23 -22 -23 -23 -23 -23 -23 -23
-17 -17 -17 -17 -17 -17 -18 -18 -18 -18 -18 -18 -19 -19 -19 -20 -20 -20 -20 -19 -20 -20 -20 -20 -21 -20 -21 -21 -21 -21 -21 -21 -21 -21 -21 -22 -22 -22 -22 -22 -23 -23 -23 -23 -23 -23 -23 -23 -23 -23 -23 -24 -24 -24
-17 -17 -17 -17 -17 -17 -17 -18 -18 -18 -18 -18 -19 -19 -19 -19 -19 -19 -20 -20 -20 -20 -20 -21 -21 -21 -21 -21 -21 -21 -21 -21 -21 -21 -21 -22 -22 -22 -22 -22 -23 -23 -23 -23 -23 -23 -23 -24 -24 -24 -24 -24 -25 -25
-17 -17 -17 -17 -18 -18 -18 -18 -18 -18 -18 -18 -19 -19 -19 -19 -19 -19 -20 -20 -20 -20 -20 -21 -21 -21 -21 -21 -21 -22 -22 -22 -22 -22 -22 -22 -22 -22 -23 -23 -23 -23 -23 -23 -24 -24 -24 -24 -24 -25 -25 -25 -25 -26
-17 -17 -17 -17 -17 -18 -18 -18 -19 -19 -18 -19 -19 -19 -19 -19 -19 -19 -19 -20 -20 -20 -20 -20 -21 -22 -22 -22 -22 -22 -22 -22 -22 -22 -22 -23 -23 -23 -23 -23 -23 -23 -23 -24 -24 -24 -24 -25 -25 -25 -26 -26 -26 -26